CW0172 Mine Hill NJ US current weather conditions

sailwx.info

Wind from 259

Air temperature 1.1° C
Dewpoint -3.0° C

Last reported at 2020-Jan-28 23:01 UTC.
Time now 2020-Jan-28 23:47 UTC

Location: N 40°52' W 074°36'.
View on Google Maps.

See reports from other nearby stations

  
Tides and Currents Weather Stations Pressure Air Temp Water Temp Dewpoint Dewpoint Depression Visibility Wind Speed Wind Dir Waves Ship Positions
date/time (UTC)wind fromknots sea level pressurealtimeterstation pressurevisibilityair tempwater tempwave heightnotes
2020-Jan-28 23:01 259 1.1
2020-Jan-28 22:46 285 1.1
2020-Jan-28 22:30 238 1.7
2020-Jan-28 22:16 302 1.7
2020-Jan-28 22:01 276 1.7
2020-Jan-28 21:45 274 1.7
2020-Jan-28 21:31 271 1 gusting 6 1.7
2020-Jan-28 21:15 259 1.7
2020-Jan-28 21:00 073 1.7
2020-Jan-28 20:45 258 2.2
2020-Jan-28 20:31 305 2.2
2020-Jan-28 20:16 293 2.2
2020-Jan-28 20:00 267 2.2
2020-Jan-28 19:46 293 2.2
2020-Jan-28 19:30 246 2.2
2020-Jan-28 19:15 310 2.2
2020-Jan-28 19:00 349 2.2
2020-Jan-28 18:45 282 2.2
2020-Jan-28 18:31 307 0 gusting 7 2.2
2020-Jan-28 18:15 082 0 gusting 6 2.2
2020-Jan-28 18:00 270 2.2
2020-Jan-28 17:45 291 2.8
2020-Jan-28 17:30 348 2.8
2020-Jan-28 17:16 331 1 gusting 9 2.8
2020-Jan-28 17:00 273 2.8
2020-Jan-28 16:45 294 2.8
2020-Jan-28 16:30 313 0 gusting 6 2.8
2020-Jan-28 16:15 284 2.8
2020-Jan-28 16:00 349 2.8
2020-Jan-28 15:45 355 0 gusting 7 2.8
2020-Jan-28 15:30 327 2.8
2020-Jan-28 15:18 037 2.2
2020-Jan-28 15:04 317 0 gusting 5 2.2
2020-Jan-28 14:47 016 2.2
2020-Jan-28 14:31 278 0 gusting 6 1.7
2020-Jan-28 14:18 009 1.1
2020-Jan-28 14:01 228 -0.0
2020-Jan-28 13:48 253 -0.0
2020-Jan-28 13:33 279 -0.0
2020-Jan-28 13:16 286 -0.6
2020-Jan-28 13:01 255 -0.6
2020-Jan-28 12:47 252 -0.6
2020-Jan-28 12:32 268 -0.6
2020-Jan-28 12:16 282 -0.6
2020-Jan-28 12:01 248 -0.6
2020-Jan-28 11:46 248 -0.0
2020-Jan-28 11:30 227 -0.0
2020-Jan-28 11:15 260 -0.0
2020-Jan-28 11:00 277 0.6
2020-Jan-28 10:45 251 0.6
2020-Jan-28 10:30 275 0.6
2020-Jan-28 10:16 271 0.6
2020-Jan-28 10:00 261 0.6
2020-Jan-28 09:45 274 0.6
2020-Jan-28 09:30 271 0.6
2020-Jan-28 09:15 313 0.6
2020-Jan-28 09:00 273 0.6
2020-Jan-28 08:45 248 0.6
2020-Jan-28 08:30 249 0.6
2020-Jan-28 08:15 360 0.6
2020-Jan-28 08:00 279 0.6
2020-Jan-28 07:45 281 0.6
2020-Jan-28 07:30 269 0.6
2020-Jan-28 07:15 267 0.6
2020-Jan-28 07:00 259 1.1
2020-Jan-28 06:46 232 1.1
2020-Jan-28 06:32 274 1.1
2020-Jan-28 06:16 237 1.1
2020-Jan-28 06:01 242 1.1
2020-Jan-28 05:46 242 1.1
2020-Jan-28 05:32 250 1.1
2020-Jan-28 05:16 230 1.1
2020-Jan-28 05:02 298 1.1
2020-Jan-28 04:46 318 1.1
2020-Jan-28 04:31 319 1.1
2020-Jan-28 04:18 298 1.7
2020-Jan-28 04:01 265 1.7
2020-Jan-28 03:45 258 1.7
2020-Jan-28 03:31 258 2.2
2020-Jan-28 03:16 262 2.2
2020-Jan-28 03:01 262 2.2
2020-Jan-28 02:47 277 2.2
2020-Jan-28 02:31 327 2.2
2020-Jan-28 02:17 259 2.2
2020-Jan-28 02:01 259 2.2
2020-Jan-28 01:45 259 2.8
2020-Jan-28 01:31 259 2.8
2020-Jan-28 01:16 259 2.8
2020-Jan-28 01:01 259 2.8
2020-Jan-28 00:46 259 2.8
2020-Jan-28 00:30 259 2.8
2020-Jan-28 00:15 255 2.8
2020-Jan-28 00:01 265 2.8
2020-Jan-27 23:45 268 2.8
2020-Jan-27 23:31 271 3.3
2020-Jan-27 23:16 271 3.3
2020-Jan-27 23:01 271 3.3
2020-Jan-27 22:46 271 3.3
2020-Jan-27 22:30 260 3.3
2020-Jan-27 22:15 267 3.3
2020-Jan-27 22:00 270 3.3
2020-Jan-27 21:46 242 3.9
2020-Jan-27 21:31 237 3.9
2020-Jan-27 21:15 236 3.9
2020-Jan-27 21:00 271 3.9
2020-Jan-27 20:46 355 4.4
2020-Jan-27 20:30 243 4.4
2020-Jan-27 20:16 280 5.0
2020-Jan-27 20:00 289 4.4
2020-Jan-27 19:45 261 0 gusting 6 4.4
2020-Jan-27 19:30 263 4.4
2020-Jan-27 19:15 261 4.4
2020-Jan-27 19:00 234 0 gusting 6 4.4
2020-Jan-27 18:46 275 4.4
2020-Jan-27 18:30 260 4.4
2020-Jan-27 18:15 259 4.4
2020-Jan-27 18:00 284 2 gusting 7 4.4
2020-Jan-27 17:46 279 4.4
2020-Jan-27 17:31 256 4.4
2020-Jan-27 17:15 302 4.4
2020-Jan-27 17:00 277 5.0
2020-Jan-27 16:45 287 5.0
2020-Jan-27 16:32 246 4.4
2020-Jan-27 16:17 212 1 gusting 11 3.9
2020-Jan-27 16:01 259 3.9
2020-Jan-27 15:47 342 3.3
2020-Jan-27 15:31 238 2.8
2020-Jan-27 15:17 271 2.8
2020-Jan-27 15:01 259 2.8
2020-Jan-27 14:45 254 2.2
2020-Jan-27 14:30 284 2.2
2020-Jan-27 14:16 277 1.7
2020-Jan-27 14:01 255 1.1
2020-Jan-27 13:46 249 1.1
2020-Jan-27 13:31 254 1.1
2020-Jan-27 13:16 262 1.1
2020-Jan-27 13:01 271 1.1
2020-Jan-27 12:45 248 1.1
2020-Jan-27 12:31 238 1.1
2020-Jan-27 12:16 245 1.1
2020-Jan-27 12:00 246 1.1
2020-Jan-27 11:45 224 1.1
2020-Jan-27 11:30 263 1.1
2020-Jan-27 11:15 281 1.1
2020-Jan-27 11:01 253 1.1
2020-Jan-27 10:45 226 1.1
2020-Jan-27 10:30 210 1.1
2020-Jan-27 10:15 275 1.1
2020-Jan-27 10:00 275 1.1
2020-Jan-27 09:46 283 1.1
2020-Jan-27 09:30 188 1.1
2020-Jan-27 09:16 286 1.1
2020-Jan-27 09:00 277 1.1
2020-Jan-27 08:45 232 1.1
2020-Jan-27 08:30 273 0 gusting 5 1.1
2020-Jan-27 08:15 254 1.1
2020-Jan-27 08:02 267 1.1
2020-Jan-27 07:47 277 1.1
2020-Jan-27 07:31 215 0.6
2020-Jan-27 07:17 223 0.6
2020-Jan-27 07:01 214 0.6
2020-Jan-27 06:47 227 0.6
2020-Jan-27 06:33 231 0.6
2020-Jan-27 06:16 242 0.6
2020-Jan-27 06:01 242 0.6
2020-Jan-27 05:46 241 0.6
2020-Jan-27 05:31 242 0.6
2020-Jan-27 05:15 241 0.6
2020-Jan-27 05:00 285 1.1
2020-Jan-27 04:46 264 1.1
2020-Jan-27 04:31 269 1.1
2020-Jan-27 04:16 242 1.1
2020-Jan-27 04:01 290 1.7
2020-Jan-27 03:46 268 1.7
2020-Jan-27 03:30 264 1.7
2020-Jan-27 03:16 261 1.1
2020-Jan-27 03:01 275 1.1
2020-Jan-27 02:46 247 0.6
2020-Jan-27 02:30 261 0.6
2020-Jan-27 02:16 241 0.6
2020-Jan-27 02:01 242 0.6
2020-Jan-27 01:46 246 1.1
2020-Jan-27 01:31 252 1.1
2020-Jan-27 01:15 249 1.1
2020-Jan-27 01:02 229 1.7
2020-Jan-27 00:45 271 1.7
2020-Jan-27 00:31 265 1.7
2020-Jan-27 00:17 260 1.7
2020-Jan-27 00:00 237 1.7
2020-Jan-26 23:45 250 2.2
2020-Jan-26 23:31 273 2.2
2020-Jan-26 23:15 269 2.2
2020-Jan-26 23:00 256 2.8